Benton Harbor, MI

10:54 PM EDT on March 24, 2017 (GMT -0400)
Southwest Michigan Regional

Weather History for KBEH - February, 2013

Change the Weather History Date:

Friday, February 1, 2013

  Actual Average Record
Temperature  
Mean Temperature 12 °F -  
Max Temperature 15 °F 36 °F 64 °F (1989)
Min Temperature 10 °F 21 °F 1 °F (1971)
Degree Days  
Heating Degree Days 52    
Moisture  
Dew Point 6 °F    
Average Humidity 76    
Maximum Humidity 85    
Minimum Humidity 64    
Precipitation  
Precipitation 0.00 in - - ()
Sea Level Pressure  
Sea Level Pressure 30.22 in    
Wind  
Wind Speed 16 mph (West)    
Max Wind Speed 22 mph    
Max Gust Speed 32 mph    
Visibility 2 miles    
Events Fog , Snow    
Averages and records for this station are not official NWS values.
T = Trace of Precipitation, MM = Missing Value Source: NWS Daily Summary

Daily Weather History Graph

Daily Weather History Graph

Search for Another Location

Airport or City:

Trip Planner

Search our weather history database for the weather conditions in past years. The results will help you decide how hot, cold, wet, or windy it might be!

Date:

Astronomy

Feb. 01, 2013 Rise Set
Actual Time 7:58 AM EST 6:00 PM EST
Civil Twilight 7:28 AM EST 6:30 PM EST
Nautical Twilight 6:55 AM EST 7:03 PM EST
Astronomical Twilight 6:22 AM EST 7:36 PM EST
Moon No Moon Rise 10:24 AM EST (2/1)
Length of Visible Light 11h 01m
Length of Day
10h 02m
Waning Gibbous, 70% of the Moon is Illuminated
Feb 1
Waning Gibbous
Feb 3
Last Quarter
Feb 10
New
Feb 17
First Quarter
Feb 25
Full

Hourly Weather History & Observations

Time (EST) Temp. Windchill Dew Point Humidity Pressure Visibility Wind Dir Wind Speed Gust Speed Precip Events Conditions
12:00 AM 15.8 °F -0.6 °F 6.8 °F 68% 30.00 in 4.0 mi West 18.4 mph 24.2 mph 0.00 in   Haze
12:08 AM 15.8 °F -1.1 °F 8.6 °F 73% 30.01 in 2.5 mi WNW 19.6 mph 26.5 mph 0.00 in Snow Light Snow
12:29 AM 15.8 °F -0.6 °F 6.8 °F 68% 30.01 in 1.8 mi West 18.4 mph 26.5 mph 0.00 in Snow Light Snow
12:41 AM 15.8 °F -0.2 °F 10.4 °F 79% 30.02 in 0.8 mi West 17.3 mph 26.5 mph 0.00 in Snow Light Snow
12:50 AM 15.8 °F 0.9 °F 8.6 °F 73% 30.02 in 1.5 mi WNW 15.0 mph 27.6 mph 0.00 in Snow Light Snow
12:51 AM 15.1 °F -1.1 °F 9.0 °F 77% 30.06 in 1.5 mi WNW 17.3 mph 32.2 mph 0.00 in Snow Light Snow
1:15 AM 15.8 °F 1.4 °F 8.6 °F 73% 30.03 in 1.0 mi West 13.8 mph 28.8 mph 0.00 in Snow Light Snow
1:30 AM 15.8 °F -0.6 °F 8.6 °F 73% 30.04 in 0.8 mi WNW 18.4 mph 32.2 mph 0.00 in Snow Light Snow
1:38 AM 15.8 °F -0.2 °F 8.6 °F 73% 30.04 in 1.0 mi WNW 17.3 mph 27.6 mph 0.00 in Snow Light Snow
2:12 AM 15.8 °F 0.9 °F 8.6 °F 73% 30.06 in 2.0 mi WNW 15.0 mph 27.6 mph 0.00 in Snow Light Snow
2:20 AM 15.8 °F -1.1 °F 8.6 °F 73% 30.06 in 1.2 mi West 19.6 mph 27.6 mph 0.00 in Snow Light Snow
2:49 AM 14.0 °F -3.4 °F 8.6 °F 79% 30.08 in 0.8 mi West 19.6 mph 26.5 mph 0.00 in Snow Light Snow
2:53 AM 14.0 °F -3.0 °F 8.1 °F 77% 30.12 in 1.0 mi West 18.4 mph 26.5 mph 0.00 in Snow Light Snow
3:05 AM 14.0 °F -3.9 °F 6.8 °F 73% 30.09 in 1.5 mi WNW 20.7 mph 28.8 mph 0.00 in Snow Light Snow
3:14 AM 14.0 °F -3.4 °F 6.8 °F 73% 30.09 in 1.2 mi West 19.6 mph - 0.00 in Snow Light Snow
3:18 AM 14.0 °F -3.4 °F 6.8 °F 73% 30.10 in 2.0 mi West 19.6 mph 27.6 mph 0.00 in Snow Light Snow
3:21 AM 14.0 °F -3.0 °F 6.8 °F 73% 30.10 in 4.0 mi West 18.4 mph 27.6 mph 0.00 in   Haze
3:24 AM 14.0 °F -4.3 °F 6.8 °F 73% 30.10 in 1.8 mi West 21.9 mph 28.8 mph 0.00 in Snow Light Snow
3:31 AM 14.0 °F -2.0 °F 6.8 °F 73% 30.10 in 0.8 mi WNW 16.1 mph 28.8 mph 0.00 in Snow Light Snow
3:49 AM 14.0 °F -3.9 °F 6.8 °F 73% 30.11 in 1.0 mi West 20.7 mph 29.9 mph 0.00 in Snow Light Snow
3:53 AM 14.0 °F -3.0 °F 8.1 °F 77% 30.15 in 0.8 mi West 18.4 mph 31.1 mph 0.00 in Snow Light Snow
4:02 AM 14.0 °F -2.0 °F 8.6 °F 79% 30.12 in 1.5 mi West 16.1 mph 25.3 mph 0.00 in Snow Light Snow
4:11 AM 14.0 °F -1.4 °F 6.8 °F 73% 30.12 in 1.0 mi WNW 15.0 mph 26.5 mph 0.00 in Snow Light Snow
4:22 AM 14.0 °F -1.4 °F 6.8 °F 73% 30.13 in 1.5 mi WNW 15.0 mph 25.3 mph 0.00 in Snow Light Snow
4:38 AM 14.0 °F -3.0 °F 6.8 °F 73% 30.13 in 1.2 mi WNW 18.4 mph 27.6 mph 0.00 in Snow Light Snow
4:53 AM 12.9 °F -3.4 °F 8.1 °F 81% 30.18 in 0.8 mi WNW 16.1 mph 26.5 mph 0.00 in Snow Light Snow
5:02 AM 12.2 °F -3.7 °F 6.8 °F 79% 30.14 in 1.5 mi West 15.0 mph 26.5 mph 0.00 in Snow Light Snow
5:07 AM 12.2 °F -3.1 °F 6.8 °F 79% 30.15 in 2.0 mi WNW 13.8 mph 26.5 mph 0.00 in Snow Light Snow
5:14 AM 12.2 °F -4.3 °F 6.8 °F 79% 30.15 in 1.2 mi West 16.1 mph 25.3 mph 0.00 in Snow Light Snow
5:26 AM 12.2 °F -5.8 °F 6.8 °F 79% 30.16 in 2.0 mi West 19.6 mph 27.6 mph 0.00 in Snow Light Snow
5:36 AM 12.2 °F -6.3 °F 6.8 °F 79% 30.16 in 1.2 mi West 20.7 mph 26.5 mph 0.00 in Snow Light Snow
5:53 AM 12.9 °F -2.8 °F 6.1 °F 74% 30.21 in 1.2 mi West 15.0 mph 28.8 mph 0.00 in Snow Light Snow
6:03 AM 12.2 °F -4.3 °F 8.6 °F 85% 30.17 in 0.5 mi West 16.1 mph 25.3 mph 0.00 in Snow Snow
6:15 AM 12.2 °F -4.3 °F 6.8 °F 79% 30.18 in 0.8 mi West 16.1 mph 27.6 mph 0.00 in Snow Light Snow
6:23 AM 12.2 °F -6.3 °F 8.6 °F 85% 30.18 in 0.5 mi West 20.7 mph 28.8 mph 0.00 in Fog , Snow Snow
6:53 AM 12.0 °F -6.5 °F 7.0 °F 80% 30.24 in 0.5 mi West 20.7 mph 26.5 mph 0.00 in Snow Snow
7:02 AM 12.2 °F -5.3 °F 6.8 °F 79% 30.20 in 0.8 mi West 18.4 mph 27.6 mph 0.00 in Snow Light Snow
7:10 AM 12.2 °F -5.3 °F 6.8 °F 79% 30.20 in 1.2 mi West 18.4 mph 26.5 mph 0.00 in Snow Light Snow
7:17 AM 12.2 °F -3.1 °F 6.8 °F 79% 30.21 in 1.5 mi West 13.8 mph 26.5 mph 0.00 in Snow Light Snow
7:32 AM 12.2 °F -4.8 °F 6.8 °F 79% 30.21 in 1.2 mi West 17.3 mph 24.2 mph 0.00 in Snow Light Snow
7:53 AM 10.9 °F -6.5 °F 6.1 °F 81% 30.26 in 1.0 mi West 17.3 mph - 0.00 in Snow Light Snow
8:05 AM 10.4 °F -6.6 °F 5.0 °F 79% 30.22 in 1.8 mi West 16.1 mph 25.3 mph 0.00 in Snow Light Snow
8:24 AM 12.2 °F -3.7 °F 3.2 °F 67% 30.23 in 3.0 mi West 15.0 mph 21.9 mph 0.00 in Snow Light Snow
8:43 AM 12.2 °F -4.8 °F 3.2 °F 67% 30.24 in 1.8 mi West 17.3 mph 21.9 mph 0.00 in Snow Light Snow
8:51 AM 12.2 °F -4.3 °F 3.2 °F 67% 30.24 in 1.2 mi West 16.1 mph 25.3 mph 0.00 in Snow Light Snow
8:53 AM 12.0 °F -4.0 °F 3.9 °F 70% 30.28 in 1.2 mi West 15.0 mph 25.3 mph 0.00 in Snow Light Snow
9:15 AM 12.2 °F -3.7 °F 3.2 °F 67% 30.25 in 2.0 mi West 15.0 mph - 0.00 in Snow Light Snow
9:24 AM 12.2 °F -4.8 °F 5.0 °F 73% 30.25 in 4.0 mi West 17.3 mph - 0.00 in Snow Light Snow
9:53 AM 12.0 °F -3.4 °F 5.0 °F 73% 30.30 in 1.2 mi West 13.8 mph - 0.00 in Snow Light Snow
10:02 AM 12.2 °F -3.1 °F 5.0 °F 73% 30.26 in 2.0 mi West 13.8 mph 23.0 mph 0.00 in Snow Light Snow
10:17 AM 12.2 °F -4.3 °F 5.0 °F 73% 30.27 in 1.8 mi West 16.1 mph - 0.00 in Snow Light Snow
10:28 AM 12.2 °F -2.5 °F 5.0 °F 73% 30.28 in 2.5 mi West 12.7 mph - 0.00 in Snow Light Snow
10:38 AM 10.4 °F -5.4 °F 5.0 °F 79% 30.28 in 1.2 mi West 13.8 mph 21.9 mph 0.00 in Snow Light Snow
10:42 AM 10.4 °F -4.8 °F 5.0 °F 79% 30.28 in 0.5 mi West 12.7 mph 21.9 mph 0.00 in Snow Snow
10:49 AM 10.4 °F -7.7 °F 5.0 °F 79% 30.28 in 0.8 mi West 18.4 mph 24.2 mph 0.00 in Snow Light Snow
10:53 AM 10.9 °F -7.5 °F 5.0 °F 77% 30.33 in 1.0 mi West 19.6 mph 24.2 mph 0.00 in Snow Light Snow
10:58 AM 10.4 °F -7.2 °F 3.2 °F 73% 30.28 in 2.0 mi West 17.3 mph - 0.00 in Snow Light Snow
11:03 AM 10.4 °F -7.2 °F 5.0 °F 79% 30.29 in 1.2 mi West 17.3 mph - 0.00 in Snow Light Snow
11:12 AM 10.4 °F -7.7 °F 5.0 °F 79% 30.29 in 0.8 mi WSW 18.4 mph 23.0 mph 0.00 in Snow Light Snow
11:21 AM 10.4 °F -6.6 °F 6.8 °F 85% 30.29 in 0.2 mi West 16.1 mph - 0.00 in Snow Heavy Snow
11:32 AM 12.2 °F -2.5 °F 6.8 °F 79% 30.30 in 1.0 mi West 12.7 mph - 0.00 in Snow Light Snow
11:34 AM 12.2 °F -3.7 °F 6.8 °F 79% 30.30 in 2.0 mi West 15.0 mph - 0.00 in Snow Light Snow
11:38 AM 10.4 °F -7.7 °F 6.8 °F 85% 30.30 in 1.2 mi West 18.4 mph 23.0 mph 0.00 in Snow Light Snow
11:53 AM 10.9 °F -5.4 °F 5.0 °F 77% 30.34 in 1.0 mi West 15.0 mph 23.0 mph 0.00 in Snow Light Snow
12:02 PM 10.4 °F -5.4 °F 3.2 °F 73% 30.30 in 2.0 mi West 13.8 mph - 0.00 in Snow Light Snow
12:22 PM 10.4 °F -5.4 °F 5.0 °F 79% 30.30 in 1.2 mi West 13.8 mph - 0.00 in Snow Light Snow
12:30 PM 10.4 °F -7.2 °F 5.0 °F 79% 30.30 in 0.8 mi West 17.3 mph - 0.00 in Snow Light Snow
12:39 PM 10.4 °F -6.6 °F 6.8 °F 85% 30.30 in 1.0 mi WSW 16.1 mph - 0.00 in Snow Light Snow
12:43 PM 10.4 °F -7.7 °F 6.8 °F 85% 30.30 in 0.5 mi WSW 18.4 mph - 0.00 in Snow Snow
12:53 PM 10.9 °F -5.9 °F 5.0 °F 77% 30.34 in 0.8 mi WSW 16.1 mph - 0.00 in Snow Light Snow
1:02 PM 10.4 °F -5.4 °F 3.2 °F 73% 30.29 in 1.0 mi WSW 13.8 mph - 0.00 in Snow Light Snow
1:14 PM 10.4 °F -6.0 °F 3.2 °F 73% 30.29 in 2.0 mi WSW 15.0 mph - 0.00 in Snow Light Snow
1:22 PM 10.4 °F -5.4 °F 3.2 °F 73% 30.29 in 1.2 mi WSW 13.8 mph - 0.00 in Snow Light Snow
1:28 PM 10.4 °F -7.2 °F 6.8 °F 85% 30.29 in 0.5 mi WSW 17.3 mph 21.9 mph 0.00 in Snow Snow
1:34 PM 10.4 °F -4.1 °F 5.0 °F 79% 30.29 in 1.0 mi WSW 11.5 mph 21.9 mph 0.00 in Snow Light Snow
1:53 PM 10.9 °F -5.4 °F 3.9 °F 73% 30.32 in 1.5 mi WSW 15.0 mph - 0.00 in Snow Light Snow
2:01 PM 10.4 °F -7.2 °F 6.8 °F 85% 30.28 in 1.2 mi WSW 17.3 mph - 0.00 in Snow Light Snow
2:08 PM 10.4 °F -4.1 °F 5.0 °F 79% 30.28 in 1.8 mi WSW 11.5 mph 19.6 mph 0.00 in Snow Light Snow
2:24 PM 10.4 °F -6.0 °F 5.0 °F 79% 30.28 in 0.8 mi WSW 15.0 mph - 0.00 in Snow Light Snow
2:28 PM 10.4 °F -5.4 °F 6.8 °F 85% 30.28 in 0.5 mi WSW 13.8 mph - 0.00 in Snow Snow
2:38 PM 12.2 °F -3.7 °F 6.8 °F 79% 30.28 in 1.0 mi SW 15.0 mph - 0.00 in Snow Light Snow
2:41 PM 12.2 °F -4.8 °F 5.0 °F 73% 30.28 in 2.0 mi WSW 17.3 mph - 0.00 in Snow Light Snow
2:53 PM 12.0 °F -2.7 °F 5.0 °F 73% 30.31 in 2.0 mi WSW 12.7 mph - 0.00 in Snow Light Snow
3:01 PM 12.2 °F -3.1 °F 5.0 °F 73% 30.27 in 1.8 mi SW 13.8 mph - 0.00 in Snow Light Snow
3:20 PM 12.2 °F -2.5 °F 5.0 °F 73% 30.27 in 0.8 mi SW 12.7 mph - 0.00 in Snow Light Snow
3:24 PM 12.2 °F -4.8 °F 6.8 °F 79% 30.27 in 0.5 mi SW 17.3 mph - 0.00 in Snow Snow
3:30 PM 12.2 °F -1.8 °F 6.8 °F 79% 30.27 in 0.8 mi SW 11.5 mph 20.7 mph 0.00 in Snow Light Snow
3:34 PM 12.2 °F -1.8 °F 6.8 °F 79% 30.27 in 1.5 mi SW 11.5 mph - 0.00 in Snow Light Snow
3:53 PM 12.0 °F -2.7 °F 6.1 °F 77% 30.31 in 0.8 mi SW 12.7 mph - 0.00 in Snow Light Snow
4:06 PM 12.2 °F -1.8 °F 6.8 °F 79% 30.27 in 1.2 mi WSW 11.5 mph 19.6 mph 0.00 in Snow Light Snow
4:25 PM 12.2 °F -1.8 °F 6.8 °F 79% 30.27 in 1.8 mi SW 11.5 mph 20.7 mph 0.00 in Snow Light Snow
4:39 PM 12.2 °F -3.1 °F 6.8 °F 79% 30.26 in 1.0 mi WSW 13.8 mph - 0.00 in Snow Light Snow
4:48 PM 12.2 °F -1.8 °F 6.8 °F 79% 30.26 in 2.0 mi SW 11.5 mph 20.7 mph 0.00 in Snow Light Snow
4:53 PM 12.9 °F -1.6 °F 7.0 °F 77% 30.30 in 3.0 mi WSW 12.7 mph - 0.00 in Snow Light Snow
5:01 PM 12.2 °F -1.0 °F 6.8 °F 79% 30.26 in 3.0 mi SW 10.4 mph - 0.00 in Snow Light Snow
5:26 PM 14.0 °F 2.0 °F 6.8 °F 73% 30.25 in 1.8 mi SW 9.2 mph - 0.00 in Snow Light Snow
5:43 PM 14.0 °F -0.2 °F 8.6 °F 79% 30.25 in 0.8 mi SW 12.7 mph - 0.00 in Snow Light Snow
5:53 PM 14.0 °F 1.2 °F 7.0 °F 74% 30.29 in 1.8 mi SW 10.4 mph - 0.00 in Snow Light Snow
5:57 PM 14.0 °F -0.8 °F 6.8 °F 73% 30.24 in 3.0 mi SW 13.8 mph - 0.00 in Snow Light Snow
6:53 PM 12.0 °F -2.0 °F 1.9 °F 64% 30.28 in 10.0 mi South 11.5 mph - 0.00 in   Overcast
7:53 PM 12.9 °F -0.9 °F 3.9 °F 67% 30.27 in 8.0 mi SSW 11.5 mph - 0.00 in Snow Light Snow
8:01 PM 12.2 °F -1.8 °F 3.2 °F 67% 30.23 in 9.0 mi SSW 11.5 mph - 0.00 in   Overcast
8:53 PM 12.9 °F -0.2 °F 3.9 °F 67% 30.26 in 10.0 mi South 10.4 mph - 0.00 in   Overcast
9:53 PM 12.9 °F 0.7 °F 5.0 °F 71% 30.25 in 10.0 mi South 9.2 mph - N/A   Overcast
10:53 PM 12.9 °F 0.7 °F 5.0 °F 71% 30.24 in 10.0 mi SSW 9.2 mph - N/A   Overcast
11:53 PM 14.0 °F 2.0 °F 6.1 °F 71% 30.23 in 7.0 mi South 9.2 mph - 0.00 in Snow Light Snow